Погода в Крохалеве

Россия / Пермский край     58°56′44″N   55°24′59″E
темп.,
°C
ветер,
м/с
пор.,
м/с
влажн.,
%
обл.,
%
осадки,
мм/ч
давл.,
гПа
погр.,
м
2 июля, сб
сб223:00+11ссз228096 0.0 101720
02:00+9сз228522 0.0 101714
05:00+8сз228983 0.0 101625
08:00+14зсз2369100 0.0 1015221
11:00+19зсз234747 0.0 10141038
14:00+22зсз23359 0.0 10132203
17:00+22ссз323732 0.0 10132224
20:00+17с376152 0.0 1013336
3 июля, вс
вс323:00+14ссв1272100 0.0 101335
02:00+13сз1178100 0.0 101315
05:00+12ссз1286100 0.0 101355
08:00+14с368082 0.0 1013446
11:00+16с4563100 0.0 10131012
14:00+16с5658100 0.1 10121297
17:00+16ссв4769100 0.3 10121203
20:00+15св3873100 0.1 1012928
4 июля, пн
пн423:00+12св278122 0.1 1013206
02:00+9ссв22965 0.0 101329
05:00+8ссв22975 0.0 101334
08:00+14св3572100 0.0 1014355
11:00+18ссв355299 0.0 10131366
14:00+19св3648100 0.0 10122240
17:00+20св57388 0.0 10132100
20:00+17св375220 0.0 1013434
5 июля, вт
вт523:00+11св227021 0.0 101515
02:00+8ююз228434 0.0 101618
05:00+7зюз118274 0.0 101712
08:00+13зюз12625 0.0 1017281
11:00+19сз12485 0.0 1016948
14:00+22с243972 0.0 10151948
17:00+23ссз233857 0.0 10142039
20:00+21з11655 0.0 101412
6 июля, ср
ср623:00+14зюз11795 0.0 101511
02:00+12з22805 0.0 101518
05:00+12з228521 0.0 101532
08:00+17зсз246460 0.0 1015221
11:00+22зсз224999 0.0 1015615
14:00+23сз2356100 0.0 1015455
17:00+24ююв015548 0.0 1014247
20:00+23ююз12685 0.0 101429